Year,Month,Day,Hour,Minute,Value (Times are PST for windgust in km/hr)
2010,03,15,00,00,16.10
2010,03,15,00,01,11.30
2010,03,15,00,02,12.90
2010,03,15,00,03,9.60
2010,03,15,00,04,16.10
2010,03,15,00,05,11.30
2010,03,15,00,06,9.60
2010,03,15,00,07,19.30
2010,03,15,00,08,19.30
2010,03,15,00,09,14.50
2010,03,15,00,10,14.50
2010,03,15,00,11,16.10
2010,03,15,00,12,9.60
2010,03,15,00,13,17.70
2010,03,15,00,14,8.10
2010,03,15,00,15,16.10
2010,03,15,00,16,14.50
2010,03,15,00,17,14.50
2010,03,15,00,18,9.60
2010,03,15,00,19,16.10
2010,03,15,00,20,17.70
2010,03,15,00,21,8.10
2010,03,15,00,22,17.70
2010,03,15,00,23,17.70
2010,03,15,00,24,14.50
2010,03,15,00,25,19.30
2010,03,15,00,26,11.30
2010,03,15,00,27,24.20
2010,03,15,00,28,11.30
2010,03,15,00,29,11.30
2010,03,15,00,30,16.10
2010,03,15,00,31,19.30
2010,03,15,00,32,17.70
2010,03,15,00,33,14.50
2010,03,15,00,34,9.60
2010,03,15,00,35,11.30
2010,03,15,00,36,8.10
2010,03,15,00,37,8.10
2010,03,15,00,38,17.70
2010,03,15,00,39,19.30
2010,03,15,00,40,11.30
2010,03,15,00,41,11.30
2010,03,15,00,42,16.10
2010,03,15,00,43,14.50
2010,03,15,00,44,11.30
2010,03,15,00,45,12.90
2010,03,15,00,46,9.60
2010,03,15,00,47,20.90
2010,03,15,00,48,11.30
2010,03,15,00,49,17.70
2010,03,15,00,50,14.50
2010,03,15,00,51,17.70
2010,03,15,00,52,12.90
2010,03,15,00,53,9.60
2010,03,15,00,54,16.10
2010,03,15,00,55,14.50
2010,03,15,00,56,11.30
2010,03,15,00,57,17.70
2010,03,15,00,58,17.70
2010,03,15,00,59,14.50
2010,03,15,01,00,17.70
2010,03,15,01,01,20.90
2010,03,15,01,02,17.70
2010,03,15,01,03,14.50
2010,03,15,01,04,11.30
2010,03,15,01,05,11.30
2010,03,15,01,06,17.70
2010,03,15,01,07,16.10
2010,03,15,01,08,11.30
2010,03,15,01,09,9.60
2010,03,15,01,10,20.90
2010,03,15,01,11,11.30
2010,03,15,01,12,14.50
2010,03,15,01,13,14.50
2010,03,15,01,14,8.10
2010,03,15,01,15,6.40
2010,03,15,01,16,8.10
2010,03,15,01,17,8.10
2010,03,15,01,18,19.30
2010,03,15,01,19,19.30
2010,03,15,01,20,8.10
2010,03,15,01,21,9.60
2010,03,15,01,22,16.10
2010,03,15,01,23,9.60
2010,03,15,01,24,16.10
2010,03,15,01,25,19.30
2010,03,15,01,26,16.10
2010,03,15,01,27,14.50
2010,03,15,01,28,20.90
2010,03,15,01,29,11.30
2010,03,15,01,30,11.30
2010,03,15,01,31,9.60
2010,03,15,01,32,12.90
2010,03,15,01,33,8.10
2010,03,15,01,34,9.60
2010,03,15,01,35,17.70
2010,03,15,01,36,11.30
2010,03,15,01,37,17.70
2010,03,15,01,38,11.30
2010,03,15,01,39,12.90
2010,03,15,01,40,12.90
2010,03,15,01,41,20.90
2010,03,15,01,42,14.50
2010,03,15,01,43,14.50
2010,03,15,01,44,11.30
2010,03,15,01,45,9.60
2010,03,15,01,46,9.60
2010,03,15,01,47,9.60
2010,03,15,01,48,12.90
2010,03,15,01,49,9.60
2010,03,15,01,50,11.30
2010,03,15,01,51,11.30
2010,03,15,01,52,19.30
2010,03,15,01,53,20.90
2010,03,15,01,54,17.70
2010,03,15,01,55,12.90
2010,03,15,01,56,17.70
2010,03,15,01,57,17.70
2010,03,15,01,58,17.70
2010,03,15,01,59,16.10
2010,03,15,02,00,16.10
2010,03,15,02,01,14.50
2010,03,15,02,02,20.90
2010,03,15,02,03,16.10
2010,03,15,02,04,8.10
2010,03,15,02,05,16.10
2010,03,15,02,06,14.50
2010,03,15,02,07,11.30
2010,03,15,02,08,8.10
2010,03,15,02,09,8.10
2010,03,15,02,10,14.50
2010,03,15,02,11,12.90
2010,03,15,02,12,9.60
2010,03,15,02,13,9.60
2010,03,15,02,14,8.10
2010,03,15,02,15,9.60
2010,03,15,02,16,17.70
2010,03,15,02,17,11.30
2010,03,15,02,18,6.40
2010,03,15,02,19,3.20
2010,03,15,02,20,11.30
2010,03,15,02,21,6.40
2010,03,15,02,22,6.40
2010,03,15,02,23,16.10
2010,03,15,02,24,14.50
2010,03,15,02,25,12.90
2010,03,15,02,26,12.90
2010,03,15,02,27,11.30
2010,03,15,02,28,11.30
2010,03,15,02,29,11.30
2010,03,15,02,30,12.90
2010,03,15,02,31,11.30
2010,03,15,02,32,19.30
2010,03,15,02,33,16.10
2010,03,15,02,34,9.60
2010,03,15,02,35,6.40
2010,03,15,02,36,11.30
2010,03,15,02,37,11.30
2010,03,15,02,38,9.60
2010,03,15,02,39,8.10
2010,03,15,02,40,6.40
2010,03,15,02,41,8.10
2010,03,15,02,42,9.60
2010,03,15,02,43,14.50
2010,03,15,02,44,16.10
2010,03,15,02,45,14.50
2010,03,15,02,46,19.30
2010,03,15,02,47,22.50
2010,03,15,02,48,20.90
2010,03,15,02,49,24.20
2010,03,15,02,50,17.70
2010,03,15,02,51,16.10
2010,03,15,02,52,8.10
2010,03,15,02,53,14.50
2010,03,15,02,54,14.50
2010,03,15,02,55,17.70
2010,03,15,02,56,16.10
2010,03,15,02,57,12.90
2010,03,15,02,58,14.50
2010,03,15,02,59,11.30
2010,03,15,03,00,11.30
2010,03,15,03,01,11.30
2010,03,15,03,02,17.70
2010,03,15,03,03,20.90
2010,03,15,03,04,27.40
2010,03,15,03,05,16.10
2010,03,15,03,06,16.10
2010,03,15,03,07,8.10
2010,03,15,03,08,19.30
2010,03,15,03,09,16.10
2010,03,15,03,10,16.10
2010,03,15,03,11,9.60
2010,03,15,03,12,16.10
2010,03,15,03,13,22.50
2010,03,15,03,14,20.90
2010,03,15,03,15,24.20
2010,03,15,03,16,16.10
2010,03,15,03,17,17.70
2010,03,15,03,18,19.30
2010,03,15,03,19,16.10
2010,03,15,03,20,17.70
2010,03,15,03,21,17.70
2010,03,15,03,22,14.50
2010,03,15,03,23,11.30
2010,03,15,03,24,14.50
2010,03,15,03,25,19.30
2010,03,15,03,26,16.10
2010,03,15,03,27,17.70
2010,03,15,03,28,17.70
2010,03,15,03,29,14.50
2010,03,15,03,30,19.30
2010,03,15,03,31,16.10
2010,03,15,03,32,16.10
2010,03,15,03,33,22.50
2010,03,15,03,34,11.30
2010,03,15,03,35,11.30
2010,03,15,03,36,11.30
2010,03,15,03,37,11.30
2010,03,15,03,38,6.40
2010,03,15,03,39,8.10
2010,03,15,03,40,11.30
2010,03,15,03,41,9.60
2010,03,15,03,42,8.10
2010,03,15,03,43,16.10
2010,03,15,03,44,12.90
2010,03,15,03,45,14.50
2010,03,15,03,46,9.60
2010,03,15,03,47,9.60
2010,03,15,03,48,8.10
2010,03,15,03,49,9.60
2010,03,15,03,50,9.60
2010,03,15,03,51,11.30
2010,03,15,03,52,17.70
2010,03,15,03,53,16.10
2010,03,15,03,54,16.10
2010,03,15,03,55,9.60
2010,03,15,03,56,9.60
2010,03,15,03,57,11.30
2010,03,15,03,58,9.60
2010,03,15,03,59,16.10
2010,03,15,04,00,11.30
2010,03,15,04,01,9.60
2010,03,15,04,02,11.30
2010,03,15,04,03,14.50
2010,03,15,04,04,14.50
2010,03,15,04,05,9.60
2010,03,15,04,06,4.80
2010,03,15,04,07,11.30
2010,03,15,04,08,11.30
2010,03,15,04,09,8.10
2010,03,15,04,10,17.70
2010,03,15,04,11,9.60
2010,03,15,04,12,11.30
2010,03,15,04,13,11.30
2010,03,15,04,14,14.50
2010,03,15,04,15,9.60
2010,03,15,04,16,11.30
2010,03,15,04,17,19.30
2010,03,15,04,18,14.50
2010,03,15,04,19,9.60
2010,03,15,04,20,11.30
2010,03,15,04,21,12.90
2010,03,15,04,22,11.30
2010,03,15,04,23,8.10
2010,03,15,04,24,11.30
2010,03,15,04,25,9.60
2010,03,15,04,26,11.30
2010,03,15,04,27,11.30
2010,03,15,04,28,11.30
2010,03,15,04,29,16.10
2010,03,15,04,30,11.30
2010,03,15,04,31,8.10
2010,03,15,04,32,16.10
2010,03,15,04,33,14.50
2010,03,15,04,34,8.10
2010,03,15,04,35,14.50
2010,03,15,04,36,9.60
2010,03,15,04,37,11.30
2010,03,15,04,38,11.30
2010,03,15,04,39,9.60
2010,03,15,04,40,11.30
2010,03,15,04,41,17.70
2010,03,15,04,42,16.10
2010,03,15,04,43,11.30
2010,03,15,04,44,11.30
2010,03,15,04,45,12.90
2010,03,15,04,46,12.90
2010,03,15,04,47,11.30
2010,03,15,04,48,14.50
2010,03,15,04,49,17.70
2010,03,15,04,50,14.50
2010,03,15,04,51,16.10
2010,03,15,04,52,11.30
2010,03,15,04,53,9.60
2010,03,15,04,54,9.60
2010,03,15,04,55,17.70
2010,03,15,04,56,8.10
2010,03,15,04,57,9.60
2010,03,15,04,58,14.50
2010,03,15,04,59,14.50
2010,03,15,05,00,8.10
2010,03,15,05,01,8.10
2010,03,15,05,02,19.30
2010,03,15,05,03,19.30
2010,03,15,05,04,17.70
2010,03,15,05,05,11.30
2010,03,15,05,06,12.90
2010,03,15,05,07,12.90
2010,03,15,05,08,11.30
2010,03,15,05,09,17.70
2010,03,15,05,10,16.10
2010,03,15,05,11,14.50
2010,03,15,05,12,17.70
2010,03,15,05,13,9.60
2010,03,15,05,14,8.10
2010,03,15,05,15,11.30
2010,03,15,05,16,16.10
2010,03,15,05,17,16.10
2010,03,15,05,18,22.50
2010,03,15,05,19,24.20
2010,03,15,05,20,9.60
2010,03,15,05,21,9.60
2010,03,15,05,22,6.40
2010,03,15,05,23,19.30
2010,03,15,05,24,11.30
2010,03,15,05,25,19.30
2010,03,15,05,26,14.50
2010,03,15,05,27,9.60
2010,03,15,05,28,14.50
2010,03,15,05,29,14.50
2010,03,15,05,30,19.30
2010,03,15,05,31,14.50
2010,03,15,05,32,19.30
2010,03,15,05,33,17.70
2010,03,15,05,34,11.30
2010,03,15,05,35,11.30
2010,03,15,05,36,14.50
2010,03,15,05,37,9.60
2010,03,15,05,38,17.70
2010,03,15,05,39,9.60
2010,03,15,05,40,6.40
2010,03,15,05,41,8.10
2010,03,15,05,42,9.60
2010,03,15,05,43,11.30
2010,03,15,05,44,14.50
2010,03,15,05,45,11.30
2010,03,15,05,46,16.10
2010,03,15,05,47,17.70
2010,03,15,05,48,17.70
2010,03,15,05,49,14.50
2010,03,15,05,50,11.30
2010,03,15,05,51,16.10
2010,03,15,05,52,14.50
2010,03,15,05,53,14.50
2010,03,15,05,54,19.30
2010,03,15,05,55,9.60
2010,03,15,05,56,9.60
2010,03,15,05,57,8.10
2010,03,15,05,58,14.50
2010,03,15,05,59,16.10
2010,03,15,06,00,17.70
2010,03,15,06,01,19.30
2010,03,15,06,02,14.50
2010,03,15,06,03,16.10
2010,03,15,06,04,17.70
2010,03,15,06,05,12.90
2010,03,15,06,06,17.70
2010,03,15,06,07,19.30
2010,03,15,06,08,17.70
2010,03,15,06,09,9.60
2010,03,15,06,10,17.70
2010,03,15,06,11,14.50
2010,03,15,06,12,16.10
2010,03,15,06,13,14.50
2010,03,15,06,14,9.60
2010,03,15,06,15,8.10
2010,03,15,06,16,8.10
2010,03,15,06,17,9.60
2010,03,15,06,18,12.90
2010,03,15,06,19,17.70
2010,03,15,06,20,12.90
2010,03,15,06,21,16.10
2010,03,15,06,22,9.60
2010,03,15,06,23,8.10
2010,03,15,06,24,8.10
2010,03,15,06,25,4.80
2010,03,15,06,26,9.60
2010,03,15,06,27,9.60
2010,03,15,06,28,11.30
2010,03,15,06,29,8.10
2010,03,15,06,30,3.20
2010,03,15,06,31,3.20
2010,03,15,06,32,11.30
2010,03,15,06,33,12.90
2010,03,15,06,34,11.30
2010,03,15,06,35,12.90
2010,03,15,06,36,16.10
2010,03,15,06,37,8.10
2010,03,15,06,38,9.60
2010,03,15,06,39,16.10
2010,03,15,06,40,17.70
2010,03,15,06,41,11.30
2010,03,15,06,42,8.10
2010,03,15,06,43,6.40
2010,03,15,06,44,9.60
2010,03,15,06,45,16.10
2010,03,15,06,46,9.60
2010,03,15,06,47,11.30
2010,03,15,06,48,8.10
2010,03,15,06,49,4.80
2010,03,15,06,50,4.80
2010,03,15,06,51,6.40
2010,03,15,06,52,9.60
2010,03,15,06,53,11.30
2010,03,15,06,54,9.60
2010,03,15,06,55,6.40
2010,03,15,06,56,17.70
2010,03,15,06,57,11.30
2010,03,15,06,58,9.60
2010,03,15,06,59,11.30
2010,03,15,07,00,11.30
2010,03,15,07,01,8.10
2010,03,15,07,02,11.30
2010,03,15,07,03,14.50
2010,03,15,07,04,6.40
2010,03,15,07,05,6.40
2010,03,15,07,06,6.40
2010,03,15,07,07,11.30
2010,03,15,07,08,9.60
2010,03,15,07,09,14.50
2010,03,15,07,10,11.30
2010,03,15,07,11,12.90
2010,03,15,07,12,9.60
2010,03,15,07,13,11.30
2010,03,15,07,14,11.30
2010,03,15,07,15,6.40
2010,03,15,07,16,8.10
2010,03,15,07,17,8.10
2010,03,15,07,18,14.50
2010,03,15,07,19,11.30
2010,03,15,07,20,14.50
2010,03,15,07,21,11.30
2010,03,15,07,22,8.10
2010,03,15,07,23,11.30
2010,03,15,07,24,9.60
2010,03,15,07,25,8.10
2010,03,15,07,26,4.80
2010,03,15,07,27,9.60
2010,03,15,07,28,6.40
2010,03,15,07,29,11.30
2010,03,15,07,30,14.50
2010,03,15,07,31,11.30
2010,03,15,07,32,6.40
2010,03,15,07,33,9.60
2010,03,15,07,34,11.30
2010,03,15,07,35,9.60
2010,03,15,07,36,9.60
2010,03,15,07,37,8.10
2010,03,15,07,38,9.60
2010,03,15,07,39,8.10
2010,03,15,07,40,11.30
2010,03,15,07,41,8.10
2010,03,15,07,42,8.10
2010,03,15,07,43,8.10
2010,03,15,07,44,6.40
2010,03,15,07,45,4.80
2010,03,15,07,46,9.60
2010,03,15,07,47,11.30
2010,03,15,07,48,8.10
2010,03,15,07,49,9.60
2010,03,15,07,50,14.50
2010,03,15,07,51,14.50
2010,03,15,07,52,16.10
2010,03,15,07,53,8.10
2010,03,15,07,54,11.30
2010,03,15,07,55,11.30
2010,03,15,07,56,14.50
2010,03,15,07,57,9.60
2010,03,15,07,58,8.10
2010,03,15,07,59,9.60
2010,03,15,08,00,9.60
2010,03,15,08,01,11.30
2010,03,15,08,02,4.80
2010,03,15,08,03,11.30
2010,03,15,08,04,9.60
2010,03,15,08,05,14.50
2010,03,15,08,06,11.30
2010,03,15,08,07,11.30
2010,03,15,08,08,11.30
2010,03,15,08,09,6.40
2010,03,15,08,10,9.60
2010,03,15,08,11,8.10
2010,03,15,08,12,11.30
2010,03,15,08,13,9.60
2010,03,15,08,14,11.30
2010,03,15,08,15,17.70
2010,03,15,08,16,8.10
2010,03,15,08,17,14.50
2010,03,15,08,18,11.30
2010,03,15,08,19,9.60
2010,03,15,08,20,9.60
2010,03,15,08,21,4.80
2010,03,15,08,22,6.40
2010,03,15,08,23,6.40
2010,03,15,08,24,6.40
2010,03,15,08,25,9.60
2010,03,15,08,26,17.70
2010,03,15,08,27,6.40
2010,03,15,08,28,8.10
2010,03,15,08,29,9.60
2010,03,15,08,30,6.40
2010,03,15,08,31,4.80
2010,03,15,08,32,9.60
2010,03,15,08,33,9.60
2010,03,15,08,34,9.60
2010,03,15,08,35,8.10
2010,03,15,08,36,4.80
2010,03,15,08,37,6.40
2010,03,15,08,38,11.30
2010,03,15,08,39,8.10
2010,03,15,08,40,11.30
2010,03,15,08,41,6.40
2010,03,15,08,42,12.90
2010,03,15,08,43,8.10
2010,03,15,08,44,8.10
2010,03,15,08,45,8.10
2010,03,15,08,46,8.10
2010,03,15,08,47,11.30
2010,03,15,08,48,16.10
2010,03,15,08,49,9.60
2010,03,15,08,50,9.60
2010,03,15,08,51,11.30
2010,03,15,08,52,16.10
2010,03,15,08,53,6.40
2010,03,15,08,54,8.10
2010,03,15,08,55,17.70
2010,03,15,08,56,14.50
2010,03,15,08,57,11.30
2010,03,15,08,58,12.90
2010,03,15,08,59,11.30
2010,03,15,09,00,8.10
2010,03,15,09,01,4.80
2010,03,15,09,02,14.50
2010,03,15,09,03,11.30
2010,03,15,09,04,17.70
2010,03,15,09,05,16.10
2010,03,15,09,06,17.70
2010,03,15,09,07,14.50
2010,03,15,09,08,8.10
2010,03,15,09,09,11.30
2010,03,15,09,10,16.10
2010,03,15,09,11,4.80
2010,03,15,09,12,8.10
2010,03,15,09,13,14.50
2010,03,15,09,14,9.60
2010,03,15,09,15,11.30
2010,03,15,09,16,11.30
2010,03,15,09,17,14.50
2010,03,15,09,18,16.10
2010,03,15,09,19,12.90
2010,03,15,09,20,12.90
2010,03,15,09,21,8.10
2010,03,15,09,22,16.10
2010,03,15,09,23,8.10
2010,03,15,09,24,16.10
2010,03,15,09,25,17.70
2010,03,15,09,26,17.70
2010,03,15,09,27,12.90
2010,03,15,09,28,17.70
2010,03,15,09,29,16.10
2010,03,15,09,30,11.30
2010,03,15,09,31,16.10
2010,03,15,09,32,12.90
2010,03,15,09,33,4.80
2010,03,15,09,34,14.50
2010,03,15,09,35,8.10
2010,03,15,09,36,17.70
2010,03,15,09,37,17.70
2010,03,15,09,38,9.60
2010,03,15,09,39,11.30
2010,03,15,09,40,9.60
2010,03,15,09,41,9.60
2010,03,15,09,42,9.60
2010,03,15,09,43,8.10
2010,03,15,09,44,11.30
2010,03,15,09,45,8.10
2010,03,15,09,46,8.10
2010,03,15,09,47,8.10
2010,03,15,09,48,9.60
2010,03,15,09,49,11.30
2010,03,15,09,50,9.60
2010,03,15,09,51,9.60
2010,03,15,09,52,14.50
2010,03,15,09,53,16.10
2010,03,15,09,54,8.10
2010,03,15,09,55,6.40
2010,03,15,09,56,8.10
2010,03,15,09,57,14.50
2010,03,15,09,58,16.10
2010,03,15,09,59,9.60
2010,03,15,10,00,8.10
2010,03,15,10,01,12.90
2010,03,15,10,02,11.30
2010,03,15,10,03,11.30
2010,03,15,10,04,11.30
2010,03,15,10,05,12.90
2010,03,15,10,06,11.30
2010,03,15,10,07,9.60
2010,03,15,10,08,6.40
2010,03,15,10,09,12.90
2010,03,15,10,10,11.30
2010,03,15,10,11,12.90
2010,03,15,10,12,11.30
2010,03,15,10,13,6.40
2010,03,15,10,14,4.80
2010,03,15,10,15,8.10
2010,03,15,10,16,14.50
2010,03,15,10,17,9.60
2010,03,15,10,18,8.10
2010,03,15,10,19,9.60
2010,03,15,10,20,11.30
2010,03,15,10,21,11.30
2010,03,15,10,22,11.30
2010,03,15,10,23,9.60
2010,03,15,10,24,11.30
2010,03,15,10,25,4.80
2010,03,15,10,26,6.40
2010,03,15,10,27,9.60
2010,03,15,10,28,8.10
2010,03,15,10,29,6.40
2010,03,15,10,30,8.10
2010,03,15,10,31,6.40
2010,03,15,10,32,4.80
2010,03,15,10,33,8.10
2010,03,15,10,34,11.30
2010,03,15,10,35,9.60
2010,03,15,10,36,12.90
2010,03,15,10,37,9.60
2010,03,15,10,38,6.40
2010,03,15,10,39,9.60
2010,03,15,10,40,9.60
2010,03,15,10,41,11.30
2010,03,15,10,42,19.30
2010,03,15,10,43,11.30
2010,03,15,10,44,8.10
2010,03,15,10,45,9.60
2010,03,15,10,46,9.60
2010,03,15,10,47,9.60
2010,03,15,10,48,11.30
2010,03,15,10,49,9.60
2010,03,15,10,50,8.10
2010,03,15,10,51,9.60
2010,03,15,10,52,11.30
2010,03,15,10,53,11.30
2010,03,15,10,54,6.40
2010,03,15,10,55,11.30
2010,03,15,10,56,14.50
2010,03,15,10,57,11.30
2010,03,15,10,58,11.30
2010,03,15,10,59,16.10
2010,03,15,11,00,14.50
2010,03,15,11,01,14.50
2010,03,15,11,02,9.60
2010,03,15,11,03,16.10
2010,03,15,11,04,16.10
2010,03,15,11,05,14.50
2010,03,15,11,06,11.30
2010,03,15,11,07,11.30
2010,03,15,11,08,9.60
2010,03,15,11,09,9.60
2010,03,15,11,10,19.30
2010,03,15,11,11,16.10
2010,03,15,11,12,9.60
2010,03,15,11,13,12.90
2010,03,15,11,14,12.90
2010,03,15,11,15,9.60
2010,03,15,11,16,8.10
2010,03,15,11,17,14.50
2010,03,15,11,18,16.10
2010,03,15,11,19,6.40
2010,03,15,11,20,3.20
2010,03,15,11,21,8.10
2010,03,15,11,22,12.90
2010,03,15,11,23,9.60
2010,03,15,11,24,8.10
2010,03,15,11,25,17.70
2010,03,15,11,26,11.30
2010,03,15,11,27,8.10
2010,03,15,11,28,14.50
2010,03,15,11,29,9.60
2010,03,15,11,30,4.80
2010,03,15,11,31,6.40
2010,03,15,11,32,8.10
2010,03,15,11,33,14.50
2010,03,15,11,34,16.10
2010,03,15,11,35,17.70
2010,03,15,11,36,17.70
2010,03,15,11,37,16.10
2010,03,15,11,38,12.90
2010,03,15,11,39,9.60
2010,03,15,11,40,16.10
2010,03,15,11,41,11.30
2010,03,15,11,42,9.60
2010,03,15,11,43,14.50
2010,03,15,11,44,16.10
2010,03,15,11,45,17.70
2010,03,15,11,46,14.50
2010,03,15,11,47,17.70
2010,03,15,11,48,16.10
2010,03,15,11,49,20.90
2010,03,15,11,50,24.20
2010,03,15,11,51,16.10
2010,03,15,11,52,11.30
2010,03,15,11,53,9.60
2010,03,15,11,54,12.90
2010,03,15,11,55,12.90
2010,03,15,11,56,14.50
2010,03,15,11,57,8.10
2010,03,15,11,58,8.10
2010,03,15,11,59,11.30
2010,03,15,12,00,6.40
2010,03,15,12,01,16.10
2010,03,15,12,02,17.70
2010,03,15,12,03,8.10
2010,03,15,12,04,11.30
2010,03,15,12,05,11.30
2010,03,15,12,06,11.30
2010,03,15,12,07,9.60
2010,03,15,12,08,11.30
2010,03,15,12,09,11.30
2010,03,15,12,10,16.10
2010,03,15,12,11,17.70
2010,03,15,12,12,14.50
2010,03,15,12,13,12.90
2010,03,15,12,14,11.30
2010,03,15,12,15,14.50
2010,03,15,12,16,11.30
2010,03,15,12,17,17.70
2010,03,15,12,18,14.50
2010,03,15,12,19,14.50
2010,03,15,12,20,12.90
2010,03,15,12,21,8.10
2010,03,15,12,22,8.10
2010,03,15,12,23,9.60
2010,03,15,12,24,14.50
2010,03,15,12,25,9.60
2010,03,15,12,26,14.50
2010,03,15,12,27,19.30
2010,03,15,12,28,9.60
2010,03,15,12,29,12.90
2010,03,15,12,30,14.50
2010,03,15,12,31,9.60
2010,03,15,12,32,8.10
2010,03,15,12,33,11.30
2010,03,15,12,34,11.30
2010,03,15,12,35,16.10
2010,03,15,12,36,14.50
2010,03,15,12,37,8.10
2010,03,15,12,38,3.20
2010,03,15,12,39,6.40
2010,03,15,12,40,11.30
2010,03,15,12,41,9.60
2010,03,15,12,42,16.10
2010,03,15,12,43,8.10
2010,03,15,12,44,9.60
2010,03,15,12,45,8.10
2010,03,15,12,46,8.10
2010,03,15,12,47,6.40
2010,03,15,12,48,6.40
2010,03,15,12,49,3.20
2010,03,15,12,50,1.60
2010,03,15,12,51,6.40
2010,03,15,12,52,4.80
2010,03,15,12,53,11.30
2010,03,15,12,54,11.30
2010,03,15,12,55,8.10
2010,03,15,12,56,9.60
2010,03,15,12,57,9.60
2010,03,15,12,58,17.70
2010,03,15,12,59,12.90
2010,03,15,13,00,11.30
2010,03,15,13,01,11.30
2010,03,15,13,02,11.30
2010,03,15,13,03,17.70
2010,03,15,13,04,19.30
2010,03,15,13,05,16.10
2010,03,15,13,06,11.30
2010,03,15,13,07,14.50
2010,03,15,13,08,11.30
2010,03,15,13,09,6.40
2010,03,15,13,10,11.30
2010,03,15,13,11,17.70
2010,03,15,13,12,9.60
2010,03,15,13,13,11.30
2010,03,15,13,14,9.60
2010,03,15,13,15,14.50
2010,03,15,13,16,12.90
2010,03,15,13,17,14.50
2010,03,15,13,18,9.60
2010,03,15,13,19,11.30
2010,03,15,13,20,6.40
2010,03,15,13,21,14.50
2010,03,15,13,22,17.70
2010,03,15,13,23,16.10
2010,03,15,13,24,16.10
2010,03,15,13,25,8.10
2010,03,15,13,26,11.30
2010,03,15,13,27,11.30
2010,03,15,13,28,11.30
2010,03,15,13,29,8.10
2010,03,15,13,30,8.10
2010,03,15,13,31,6.40
2010,03,15,13,32,6.40
2010,03,15,13,33,14.50
2010,03,15,13,34,8.10
2010,03,15,13,35,9.60
2010,03,15,13,36,11.30
2010,03,15,13,37,9.60
2010,03,15,13,38,9.60
2010,03,15,13,39,9.60
2010,03,15,13,40,9.60
2010,03,15,13,41,9.60
2010,03,15,13,42,8.10
2010,03,15,13,43,9.60
2010,03,15,13,44,11.30
2010,03,15,13,45,6.40
2010,03,15,13,46,8.10
2010,03,15,13,47,8.10
2010,03,15,13,48,11.30
2010,03,15,13,49,12.90
2010,03,15,13,50,14.50
2010,03,15,13,51,6.40
2010,03,15,13,52,4.80
2010,03,15,13,53,3.20
2010,03,15,13,54,3.20
2010,03,15,13,55,6.40
2010,03,15,13,56,11.30
2010,03,15,13,57,14.50
2010,03,15,13,58,11.30
2010,03,15,13,59,6.40
2010,03,15,14,00,16.10
2010,03,15,14,01,14.50
2010,03,15,14,02,9.60
2010,03,15,14,03,11.30
2010,03,15,14,04,9.60
2010,03,15,14,05,8.10
2010,03,15,14,06,11.30
2010,03,15,14,07,8.10
2010,03,15,14,08,8.10
2010,03,15,14,09,14.50
2010,03,15,14,10,16.10
2010,03,15,14,11,17.70
2010,03,15,14,12,11.30
2010,03,15,14,13,9.60
2010,03,15,14,14,14.50
2010,03,15,14,15,9.60
2010,03,15,14,16,6.40
2010,03,15,14,17,9.60
2010,03,15,14,18,9.60
2010,03,15,14,19,11.30
2010,03,15,14,20,16.10
2010,03,15,14,21,20.90
2010,03,15,14,22,9.60
2010,03,15,14,23,9.60
2010,03,15,14,24,11.30
2010,03,15,14,25,16.10
2010,03,15,14,26,14.50
2010,03,15,14,27,9.60
2010,03,15,14,28,3.20
2010,03,15,14,29,6.40
2010,03,15,14,30,8.10
2010,03,15,14,31,11.30
2010,03,15,14,32,11.30
2010,03,15,14,33,19.30
2010,03,15,14,34,11.30
2010,03,15,14,35,14.50
2010,03,15,14,36,6.40
2010,03,15,14,37,11.30
2010,03,15,14,38,11.30
2010,03,15,14,39,8.10
2010,03,15,14,40,6.40
2010,03,15,14,41,6.40
2010,03,15,14,42,4.80
2010,03,15,14,43,4.80
2010,03,15,14,44,6.40
2010,03,15,14,45,8.10
2010,03,15,14,46,8.10
2010,03,15,14,47,16.10
2010,03,15,14,48,14.50
2010,03,15,14,49,9.60
2010,03,15,14,50,8.10
2010,03,15,14,51,8.10
2010,03,15,14,52,8.10
2010,03,15,14,53,11.30
2010,03,15,14,54,8.10
2010,03,15,14,55,9.60
2010,03,15,14,56,8.10
2010,03,15,14,57,16.10
2010,03,15,14,58,9.60
2010,03,15,14,59,6.40
2010,03,15,15,00,4.80
2010,03,15,15,01,9.60
2010,03,15,15,02,9.60
2010,03,15,15,03,9.60
2010,03,15,15,04,8.10
2010,03,15,15,05,6.40
2010,03,15,15,06,4.80
2010,03,15,15,07,8.10
2010,03,15,15,08,11.30
2010,03,15,15,09,9.60
2010,03,15,15,10,9.60
2010,03,15,15,11,9.60
2010,03,15,15,12,11.30
2010,03,15,15,13,14.50
2010,03,15,15,14,6.40
2010,03,15,15,15,11.30
2010,03,15,15,16,9.60
2010,03,15,15,17,9.60
2010,03,15,15,18,8.10
2010,03,15,15,19,11.30
2010,03,15,15,20,14.50
2010,03,15,15,21,6.40
2010,03,15,15,22,9.60
2010,03,15,15,23,14.50
2010,03,15,15,24,9.60
2010,03,15,15,25,8.10
2010,03,15,15,26,8.10
2010,03,15,15,27,9.60
2010,03,15,15,28,8.10
2010,03,15,15,29,11.30
2010,03,15,15,30,4.80
2010,03,15,15,31,9.60
2010,03,15,15,32,4.80
2010,03,15,15,33,4.80
2010,03,15,15,34,8.10
2010,03,15,15,35,9.60
2010,03,15,15,36,6.40
2010,03,15,15,37,8.10
2010,03,15,15,38,6.40
2010,03,15,15,39,8.10
2010,03,15,15,40,6.40
2010,03,15,15,41,6.40
2010,03,15,15,42,3.20
2010,03,15,15,43,6.40
2010,03,15,15,44,6.40
2010,03,15,15,45,9.60
2010,03,15,15,46,8.10
2010,03,15,15,47,4.80
2010,03,15,15,48,9.60
2010,03,15,15,49,6.40
2010,03,15,15,50,4.80
2010,03,15,15,51,6.40
2010,03,15,15,52,6.40
2010,03,15,15,53,8.10
2010,03,15,15,54,8.10
2010,03,15,15,55,6.40
2010,03,15,15,56,4.80
2010,03,15,15,57,6.40
2010,03,15,15,58,8.10
2010,03,15,15,59,8.10
2010,03,15,16,00,4.80
2010,03,15,16,01,8.10
2010,03,15,16,02,4.80
2010,03,15,16,03,3.20
2010,03,15,16,04,1.60
2010,03,15,16,05,1.60
2010,03,15,16,06,1.60
2010,03,15,16,07,1.60
2010,03,15,16,08,0.00
2010,03,15,16,09,0.00
2010,03,15,16,10,0.00
2010,03,15,16,11,0.00
2010,03,15,16,12,0.00
2010,03,15,16,13,0.00
2010,03,15,16,14,0.00
2010,03,15,16,15,0.00
2010,03,15,16,16,1.60
2010,03,15,16,17,1.60
2010,03,15,16,18,1.60
2010,03,15,16,19,0.00
2010,03,15,16,20,0.00
2010,03,15,16,21,1.60
2010,03,15,16,22,3.20
2010,03,15,16,23,1.60
2010,03,15,16,24,3.20
2010,03,15,16,25,3.20
2010,03,15,16,26,4.80
2010,03,15,16,27,3.20
2010,03,15,16,28,3.20
2010,03,15,16,29,4.80
2010,03,15,16,30,3.20
2010,03,15,16,31,4.80
2010,03,15,16,32,3.20
2010,03,15,16,33,4.80
2010,03,15,16,34,3.20
2010,03,15,16,35,1.60
2010,03,15,16,36,1.60
2010,03,15,16,37,4.80
2010,03,15,16,38,4.80
2010,03,15,16,39,6.40
2010,03,15,16,40,4.80
2010,03,15,16,41,8.10
2010,03,15,16,42,6.40
2010,03,15,16,43,6.40
2010,03,15,16,44,3.20
2010,03,15,16,45,1.60
2010,03,15,16,46,1.60
2010,03,15,16,47,3.20
2010,03,15,16,48,3.20
2010,03,15,16,49,3.20
2010,03,15,16,50,0.00
2010,03,15,16,51,1.60
2010,03,15,16,52,3.20
2010,03,15,16,53,1.60
2010,03,15,16,54,3.20
2010,03,15,16,55,3.20
2010,03,15,16,56,3.20
2010,03,15,16,57,1.60
2010,03,15,16,58,3.20
2010,03,15,16,59,1.60
2010,03,15,17,00,1.60
2010,03,15,17,01,3.20
2010,03,15,17,02,1.60
2010,03,15,17,03,1.60
2010,03,15,17,04,4.80
2010,03,15,17,05,3.20
2010,03,15,17,06,3.20
2010,03,15,17,07,3.20
2010,03,15,17,08,3.20
2010,03,15,17,09,1.60
2010,03,15,17,10,1.60
2010,03,15,17,11,1.60
2010,03,15,17,12,3.20
2010,03,15,17,13,1.60
2010,03,15,17,14,4.80
2010,03,15,17,15,4.80
2010,03,15,17,16,3.20
2010,03,15,17,17,4.80
2010,03,15,17,18,4.80
2010,03,15,17,19,3.20
2010,03,15,17,20,4.80
2010,03,15,17,21,3.20
2010,03,15,17,22,1.60
2010,03,15,17,23,1.60
2010,03,15,17,24,1.60
2010,03,15,17,25,3.20
2010,03,15,17,26,1.60
2010,03,15,17,27,1.60
2010,03,15,17,28,4.80
2010,03,15,17,29,6.40
2010,03,15,17,30,4.80
2010,03,15,17,31,3.20
2010,03,15,17,32,3.20
2010,03,15,17,33,4.80
2010,03,15,17,34,4.80
2010,03,15,17,35,4.80
2010,03,15,17,36,4.80
2010,03,15,17,37,1.60
2010,03,15,17,38,3.20
2010,03,15,17,39,3.20
2010,03,15,17,40,3.20
2010,03,15,17,41,1.60